Вернуться в каталог

STARLINK-4641

АктивенСвязьVLEO
NORAD 53730·PAYLOAD·🇺🇸 United States

Запущен Sep 5, 2022 с Cape Canaveral Space Force Station

Loading…

Ближайшие Пролёты (ближайшие 24 часа)

TLE

СвежийSource: CelesTrak SupGP

Эпоха: Sep 15, 2026, 02:58 UTC

1 53730C 22107AG  26258.12409722  .00013167  00000+0  38903-3 0  2581
2 53730  53.1581 108.7120 0001274  83.1382  27.2915 15.34382575    11

Отслеживайте STARLINK-4641 в реальном времени с AllMySat

Download on the App Store